GORIZONT 33

Satellite information

Favourite Embed

Satellite Type and Status

PAYLOADIN ORBIT

Key statistics

Satellite GORIZONT 33 at a glance.

Uptime

9163

Days in orbit

Revolutions

≈ 1.0

Per day

Orbit

OTHER

Other

Inclination

13.7

Latest

Satellite identification and parameters

Extended collection of information and parameters for GORIZONT 33.

Object identification

Identified? True

Debris? False

Object name: GORIZONT 33

International designator: 2000-029A

Object number (NORAD): 26372

Object ID (CCSDS): 26372

Country: COMMONWEALTH OF INDEPENDENT STATES (CIS)

Current information (Y/N): Y

RCS size: LARGE

Orbital parameters

Period: 1436.263 minutes

Inclination: 13.7018 deg

SMA: 42167.986 km

Apoapsis: 35801.616 km

Periapsis: 35778.087 km

RAAN: 9.2957 deg

Eccentricy: 0.000279

Argument of periapsis: 195.9992 deg

Mean anomaly: 156.072 deg

Mean motion: 1.00260177 rev/day

Mean motion (dot): -0.00000256 rev/day2

B* drag term: 0.0 1/REarth

Two-line elements (TLE)

Creation date: July 8, 2025, 2:27 a.m.

Reference frame: TEME

Reference center: EARTH

Epoch: July 7, 2025, 7:21 p.m. UTC

TLE line 0: 0 GORIZONT 33

TLE line 1: 1 26372U 00029A 25188.80650056 -.00000256 00000-0 00000-0 0 9999

TLE line 2: 2 26372 13.7018 9.2957 0002790 195.9992 156.0720 1.00260177 91977

Live tracking on map

Real-time ground track for satellite GORIZONT 33.

In-orbit conjunctions

A list of the most updated potential collisions computed for object GORIZONT 33.

Target Orbit TCA Probability of collision Miss distance Type
COSMOS 1888 OTHER 2025-07-10 11:24:17 TBA 2401.0 (m) PAYLOAD

Associated space launch

Geostationary communications satellite

GORIZONT 33 was lifted into orbit during the mission ‘Proton-K/Briz-M | Gorizont 33’, on board a Proton-K/Briz-M space rocket.

The launch took place on June 6, 2000, 2:59 a.m. from 81/24 (81P).

For more information about the launch, click the button.

Launch to space Proton-K/Briz-M | Gorizont 33
Proton-K/Briz-M | Gorizont 33

Agency: N/A

Status: Launch Successful

Launch date: June 6, 2000, 2:59 a.m. UTC

Rocket: Proton-K/Briz-M

Launch pad: 81/24 (81P)

Location: Baikonur Cosmodrome, Republic of Kazakhstan

...

Latest news about this satellite

There are no fresh news available about this satellite. Check back as we update our databases every day.


Newsletter sign-up

Weekly statistics, charts and insights to help you stay on top of the space industry.